Regional Weather Roundup
Issued by NWS

Home | Current Version | Previous Version | Graphics & Text | Print | Product List | Glossary On
Versions: 1 2 3 4 5 6 7 8 9 10 11 12 13 14 15 16 17 18 19 20 21 22 23 24 25 26 27 28 29 30 31 32 33 34 35 36 37 38 39 40 41 42 43 44 45 46 47 48 49 50
000
ASUS43 KDTX 210210
RWRMI
MICHIGAN HOURLY REGIONAL WEATHER ROUNDUP
NATIONAL WEATHER SERVICE DETROIT/PONTIAC MI
1000 PM EDT MON APR 20 2015

NOTE: "FAIR" INDICATES FEW OR NO CLOUDS BELOW 12,000 FEET WITH NO
SIGNIFICANT WEATHER AND/OR OBSTRUCTION TO VISIBILITY.

MIZ047>049-052>055-059>063-066>070-074>076-081>083-210300-
SOUTHEAST LOWER MICHIGAN

CITY           SKY/WX    TMP DP  RH WIND       PRES   REMARKS
ADRIAN         CLOUDY    46  40  79 W10       29.59R
ALMA           CLOUDY    42  39  89 W9G22     29.51R
ANN ARBOR      CLOUDY    45  38  76 W13       29.56R
BAD AXE        CLOUDY    44  37  75 SW18G25   29.47R
DETROIT CITY   CLOUDY    47  38  71 W13G24    29.56R
DETROIT        MOCLDY    47  39  74 SW14      29.57R
FLINT          CLOUDY    46  38  73 W14G23    29.53R
GROSSE ILE     MOCLDY    46  43  87 SW8       29.56R
HILLSDALE      CLOUDY    45  39  79 W9        29.58R
HOWELL         CLOUDY    43  39  86 W14G24    29.54R

CITY           SKY/WX    TMP DP  RH WIND       PRES   REMARKS
JACKSON        CLOUDY    44  37  76 W14       29.56R
LAMBERTVILLE   CLOUDY    48  39  71 W10G16    29.60R
LANSING        CLOUDY    42  37  82 W20G28    29.55R
LAPEER         NOT AVBL
MASON          RAIN      42  37  81 W10G18    29.56R
MONROE         LGT RAIN  46  43  87 W9        29.57R
PONTIAC        LGT RAIN  45  38  76 W16G22    29.53R
PORT HOPE        N/A     46  36  68 W9G22     29.43R
PORT HURON     CLOUDY    46  39  76 SW9G16    29.53R
TRI CITIES     CLOUDY    45  38  76 SW16G23   29.49R
YPSILANTI      MOCLDY    49  38  65 W20G25    29.57R
$$
MIZ043>046-050>051-056>058-064>065-071>073-077>080-210300-
SOUTHWEST LOWER MICHIGAN

CITY           SKY/WX    TMP DP  RH WIND       PRES   REMARKS
BATTLE CREEK   CLOUDY    43  36  76 W13       29.58R
BENTON HARBOR  CLOUDY    42  35  76 W14       29.60R
BIG RAPIDS     LGT RAIN  40  37  90 W10G20    29.48R
COLDWATER      CLOUDY    44  35  71 W14G21    29.59R
HOLLAND        CLOUDY    43  35  73 W13       29.57R
GRAND RAPIDS   LGT RAIN  41  38  89 W16       29.54R
KALAMAZOO      CLOUDY    44  35  70 W12       29.59R
MARSHALL       CLOUDY    42  35  77 W15G26    29.57R
MUSKEGON       CLOUDY    41  34  76 W9        29.54R
$$
MIZ016>042-210300-
NORTHERN LOWER MICHIGAN

CITY           SKY/WX    TMP DP  RH WIND       PRES   REMARKS
ALPENA         CLOUDY    41  37  86 VRB7      29.38R
BEAVER ISLAND  DRIZZLE   35  34  96 SW12      29.37R
BELLAIRE       MIX PCPN  38  35  91 CALM      29.42S
CADILLAC       RAIN      36  35  94 SW8       29.42S
CHARLEVOIX     LGT RAIN  37  36  99 W16G22    29.42R
FRANKFORT      RAIN      41  35  78 SW6       29.43R
GAYLORD        LGT RAIN  35  35 100 W13       29.38R
GRAYLING       CLOUDY    37  34  90 W8        29.42R
HARBOR SPRINGS LGT RAIN  34  34  97 SW14G22   29.38R
HOUGHTON LAKE  CLOUDY    39  34  82 W17G24    29.43R
MANISTEE       CLOUDY    39  34  81 W13       29.46R
OSCODA         CLOUDY    45  35  68 W17G26    29.40R
PELLSTON       LGT RAIN  36  34  92 W13G20    29.37R
TRAVERSE CITY  LGT RAIN  39  36  89 SW3       29.42R
$$
MIZ007>008-015-210300-
EASTERN UPPER MICHIGAN

CITY           SKY/WX    TMP DP  RH WIND       PRES   REMARKS
KINROSS        CLOUDY    37  36  93 W8        29.32R
MACKINAC ISLAN MIX PCPN  36  36 100 W12G22    29.34R
NEWBERRY       CLOUDY    35  34  97 SW9       29.31R
S. S. MARIE    CLOUDY    36  33  89 W8        29.30R
$$
MIZ004>006-011>014-085-210300-
CENTRAL UPPER MICHIGAN

CITY           SKY/WX    TMP DP  RH WIND       PRES   REMARKS
MANISTIQUE     CLOUDY    36  35  94 W8        29.34R
ESCANABA       CLOUDY    37  34  87 SW6       29.36R
MENOMINEE      CLOUDY    39  30  70 W6        29.39S
SAWYER-GWINN   CLOUDY    34  32  93 W9        29.31R
$$
MIZ001>003-009>011-084-210300-
WESTERN UPPER MICHIGAN

CITY           SKY/WX    TMP DP  RH WIND       PRES   REMARKS
IRON MOUNTAIN  CLOUDY    37  31  78 W9G20     29.33R
HOUGHTON       LGT SNOW  33  30  88 W21       29.27R FOG
COPPER HARBOR    N/A     35  31  85 NW15G28   29.25R
IRONWOOD       CLOUDY    34  28  80 W16       29.33S
$$

ABBREVIATIONS USED IN REMARKS
   TC - TEMPERATURE IN CELSIUS
  WCI - WIND CHILL INDEX
   HX - HEAT INDEX
  VSB - VISIBILITY




USA.gov is the U.S. government's official web portal to all federal, state and local government web resources and services.